カタログに戻る

CZ-6A DEB

運用中PO
NORAD 61315·DEBRIS·🇨🇳 China

打ち上げ Aug 6, 2024 から Taiyuan Satellite Launch Center

Loading…

次のパス (今後24時間)

TLE

最新Source: Space-Track

元期: Sep 13, 2026, 22:44 UTC

1 61315U 24140UC  26256.94724849  .00008463  00000-0  11656-2 0  9997
2 61315  88.9451 252.9329 0064983 281.7587  77.6350 14.76688940109273

AllMySatでCZ-6A DEBをリアルタイム追跡

Download on the App Store